Погода в Ермакове

Россия / Ярославская область     58°36′46″N   38°41′39″E
темп.,
°C
ветер,
м/с
пор.,
м/с
влажн.,
%
обл.,
%
осадки,
мм/ч
давл.,
гПа
погр.,
м
18 октября, пн
пн1800:00+6зюз911780 0.1 1006974
03:00+6зюз810783 0.1 1006700
06:00+5зюз8108063 0.0 1005668
09:00+5зюз9108313 0.5 1004678
12:00+5з887716 0.1 1005886
15:00+5з9107112 0.6 10041126
18:00+5з9107194 0.3 10051226
21:00+4зсз11128994 0.8 1005813
19 октября, вт
вт1900:00+3зсз101197100 0.6 1007659
03:00+3сз9984100 1.0 10091013
06:00+3зсз888198 0.1 1011716
09:00+3сз7886100 0.3 1012732
12:00+4сз778196 0.2 1013834
15:00+4сз6673100 0.4 1013938
18:00+3ссз6682100 0.2 1015720
21:00+2с459490 0.8 1016390
20 октября, ср
ср2000:00+3ссз568491 0.1 1017522
03:00+2с558121 0.3 1019476
06:00+2ссз448094 0.1 1020474
09:00+1сз4478100 0.2 1020657
12:00+2зюз567191 0.1 10191000
15:00+3юз7763100 0.2 10181196
18:00+3ююз91067100 0.0 1015878
21:00+3ю111371100 0.0 1012780
21 октября, чт
чт2100:00+1ююв121797100 2.1 1007672
03:00+3ю141993100 5.8 1001775
06:00+5ююз141992100 4.4 997837
09:00+6ююз142195100 6.6 994766
12:00+8юз121994100 0.3 993443
15:00+9юз11179180 0.6 993276
18:00+9юз101792100 0.3 993236
21:00+9ююз91496100 0.4 991188
22 октября, пт
пт2200:00+8ююз101697100 3.7 988299
03:00+9юз121886100 4.5 988349
06:00+9юз12178469 0.4 988332
09:00+9юз142078100 0.6 988491
12:00+9зюз162276100 0.1 990680
15:00+8зюз142083100 0.9 993630
18:00+8з13197897 0.1 997517
21:00+8з111579100 0.3 1000427